Time,TemperatureF,DewpointF,PressureIn,WindDirection,WindDirectionDegrees,WindSpeedMPH,WindSpeedGustMPH,Humidity,HourlyPrecipIn,Conditions,Clouds,dailyrainin,SoftwareType,DateUTC
2013-05-14 00:01:00,56.0,52.0,30.01,West,273,0.0,-999.0,86,-99.99,,,-99.99,,2013-05-14 05:01:00,
2013-05-14 00:12:00,56.0,52.0,30.01,West,273,0.0,-999.0,86,-99.99,,,-99.99,,2013-05-14 05:12:00,
2013-05-14 00:22:00,55.0,51.0,30.01,West,273,0.0,-999.0,87,-99.99,,,-99.99,,2013-05-14 05:22:00,
2013-05-14 00:32:00,55.0,51.0,30.01,West,273,0.0,-999.0,87,-99.99,,,-99.99,,2013-05-14 05:32:00,
2013-05-14 00:42:00,55.0,51.0,30.01,West,273,0.0,-999.0,87,-99.99,,,-99.99,,2013-05-14 05:42:00,
2013-05-14 00:52:00,54.0,51.0,30.01,West,273,0.0,-999.0,88,-99.99,,,-99.99,,2013-05-14 05:52:00,
2013-05-14 01:01:00,54.0,51.0,30.00,West,273,0.0,-999.0,88,-99.99,,,-99.99,,2013-05-14 06:01:00,
2013-05-14 01:12:00,54.0,51.0,30.00,West,273,0.0,-999.0,88,-99.99,,,-99.99,,2013-05-14 06:12:00,
2013-05-14 01:22:00,54.0,51.0,30.00,West,273,0.0,-999.0,89,-99.99,,,-99.99,,2013-05-14 06:22:00,
2013-05-14 01:32:00,53.0,50.0,29.99,West,273,0.0,-999.0,89,-99.99,,,-99.99,,2013-05-14 06:32:00,
2013-05-14 01:42:00,53.0,50.0,29.99,West,273,0.0,-999.0,89,-99.99,,,-99.99,,2013-05-14 06:42:00,
2013-05-14 01:52:00,53.0,50.0,29.99,West,273,0.0,-999.0,89,-99.99,,,-99.99,,2013-05-14 06:52:00,
2013-05-14 02:02:00,53.0,50.0,29.98,West,273,0.0,-999.0,89,-99.99,,,-99.99,,2013-05-14 07:02:00,
2013-05-14 02:11:00,53.0,50.0,29.98,West,273,0.0,-999.0,89,-99.99,,,-99.99,,2013-05-14 07:11:00,
2013-05-14 02:21:00,52.0,49.0,29.98,West,273,0.0,-999.0,90,-99.99,,,-99.99,,2013-05-14 07:21:00,
2013-05-14 02:31:00,52.0,49.0,29.98,West,273,0.0,-999.0,90,-99.99,,,-99.99,,2013-05-14 07:31:00,
2013-05-14 02:41:00,52.0,49.0,29.98,West,273,0.0,-999.0,91,-99.99,,,-99.99,,2013-05-14 07:41:00,
2013-05-14 02:52:00,52.0,49.0,29.98,West,273,0.0,-999.0,91,-99.99,,,-99.99,,2013-05-14 07:52:00,
2013-05-14 03:02:00,52.0,49.0,29.98,West,273,0.0,-999.0,91,-99.99,,,-99.99,,2013-05-14 08:02:00,
2013-05-14 03:11:00,52.0,49.0,29.98,West,273,0.0,-999.0,91,-99.99,,,-99.99,,2013-05-14 08:11:00,
2013-05-14 03:21:00,51.0,48.0,29.98,West,273,0.0,-999.0,91,-99.99,,,-99.99,,2013-05-14 08:21:00,
2013-05-14 03:31:00,51.0,49.0,29.98,West,273,0.0,-999.0,92,-99.99,,,-99.99,,2013-05-14 08:31:00,
2013-05-14 03:41:00,51.0,49.0,29.98,West,273,0.0,-999.0,92,-99.99,,,-99.99,,2013-05-14 08:41:00,
2013-05-14 03:52:00,51.0,49.0,29.98,West,273,0.0,-999.0,92,-99.99,,,-99.99,,2013-05-14 08:52:00,
2013-05-14 04:02:00,50.0,48.0,29.98,West,273,0.0,-999.0,92,-99.99,,,-99.99,,2013-05-14 09:02:00,
2013-05-14 04:11:00,50.0,48.0,29.98,West,273,0.0,-999.0,92,-99.99,,,-99.99,,2013-05-14 09:11:00,
2013-05-14 04:22:00,50.0,48.0,29.98,West,273,0.0,-999.0,92,-99.99,,,-99.99,,2013-05-14 09:22:00,
2013-05-14 04:32:00,50.0,48.0,29.97,West,273,0.0,-999.0,92,-99.99,,,-99.99,,2013-05-14 09:32:00,
2013-05-14 04:44:00,50.0,48.0,29.97,West,273,0.0,-999.0,93,-99.99,,,-99.99,,2013-05-14 09:44:00,
2013-05-14 04:54:00,50.0,48.0,29.97,West,273,0.0,-999.0,93,-99.99,,,-99.99,,2013-05-14 09:54:00,
2013-05-14 05:04:00,50.0,48.0,29.98,West,273,0.0,-999.0,93,-99.99,,,-99.99,,2013-05-14 10:04:00,
2013-05-14 05:14:00,50.0,48.0,29.98,West,273,0.0,-999.0,93,-99.99,,,-99.99,,2013-05-14 10:14:00,
2013-05-14 05:25:00,49.0,47.0,29.97,West,273,0.0,-999.0,93,-99.99,,,-99.99,,2013-05-14 10:25:00,
2013-05-14 05:33:00,49.0,47.0,29.98,West,273,0.0,-999.0,93,-99.99,,,-99.99,,2013-05-14 10:33:00,
2013-05-14 05:42:00,49.0,47.0,29.98,West,273,0.0,-999.0,93,-99.99,,,-99.99,,2013-05-14 10:42:00,
2013-05-14 05:52:00,49.0,47.0,29.98,West,273,0.0,-999.0,93,-99.99,,,-99.99,,2013-05-14 10:52:00,
2013-05-14 06:02:00,49.0,47.0,29.98,West,273,0.0,-999.0,93,-99.99,,,-99.99,,2013-05-14 11:02:00,
2013-05-14 06:11:00,49.0,47.0,29.98,West,273,0.0,-999.0,93,-99.99,,,-99.99,,2013-05-14 11:11:00,
2013-05-14 06:21:00,49.0,47.0,29.98,West,273,0.0,-999.0,93,-99.99,,,-99.99,,2013-05-14 11:21:00,
2013-05-14 06:32:00,48.0,46.0,29.98,West,273,0.0,-999.0,93,-99.99,,,-99.99,,2013-05-14 11:32:00,
2013-05-14 06:43:00,48.0,46.0,29.98,West,273,0.0,-999.0,93,-99.99,,,-99.99,,2013-05-14 11:43:00,
2013-05-14 06:53:00,48.0,46.0,29.99,West,273,0.0,-999.0,93,-99.99,,,-99.99,,2013-05-14 11:53:00,
2013-05-14 07:02:00,49.0,47.0,29.99,West,273,0.0,-999.0,94,-99.99,,,-99.99,,2013-05-14 12:02:00,
2013-05-14 07:12:00,49.0,47.0,29.99,West,273,0.0,-999.0,94,-99.99,,,-99.99,,2013-05-14 12:12:00,
2013-05-14 07:21:00,49.0,47.0,29.99,West,273,0.0,-999.0,94,-99.99,,,-99.99,,2013-05-14 12:21:00,
2013-05-14 07:32:00,50.0,48.0,29.99,West,273,0.0,-999.0,94,-99.99,,,-99.99,,2013-05-14 12:32:00,
2013-05-14 07:42:00,50.0,48.0,29.99,West,273,0.0,-999.0,94,-99.99,,,-99.99,,2013-05-14 12:42:00,
2013-05-14 07:52:00,51.0,49.0,29.99,West,273,0.0,-999.0,94,-99.99,,,-99.99,,2013-05-14 12:52:00,
2013-05-14 08:01:00,52.0,50.0,29.99,West,273,0.0,-999.0,94,-99.99,,,-99.99,,2013-05-14 13:01:00,
2013-05-14 08:11:00,52.0,50.0,29.99,West,273,0.0,-999.0,94,-99.99,,,-99.99,,2013-05-14 13:11:00,
2013-05-14 08:22:00,54.0,51.0,29.99,West,273,0.0,-999.0,91,-99.99,,,-99.99,,2013-05-14 13:22:00,
2013-05-14 08:32:00,55.0,52.0,29.99,West,273,0.0,-999.0,89,-99.99,,,-99.99,,2013-05-14 13:32:00,
2013-05-14 08:41:00,55.0,52.0,29.99,West,273,0.0,-999.0,89,-99.99,,,-99.99,,2013-05-14 13:41:00,
2013-05-14 08:52:00,55.0,52.0,29.99,West,273,0.0,-999.0,89,-99.99,,,-99.99,,2013-05-14 13:52:00,
2013-05-14 09:01:00,59.0,54.0,30.00,West,273,0.0,-999.0,84,-99.99,,,-99.99,,2013-05-14 14:01:00,
2013-05-14 09:11:00,61.0,55.0,30.00,West,273,0.0,-999.0,80,-99.99,,,-99.99,,2013-05-14 14:11:00,
2013-05-14 09:22:00,61.0,55.0,30.00,West,273,0.0,-999.0,80,-99.99,,,-99.99,,2013-05-14 14:22:00,
2013-05-14 09:31:00,64.0,57.0,30.00,West,275,0.0,-999.0,77,-99.99,,,-99.99,,2013-05-14 14:31:00,
2013-05-14 09:41:00,64.0,57.0,30.00,West,275,0.0,-999.0,77,-99.99,,,-99.99,,2013-05-14 14:41:00,
2013-05-14 09:52:00,67.0,57.0,29.99,West,275,0.0,-999.0,70,-99.99,,,-99.99,,2013-05-14 14:52:00,
2013-05-14 10:01:00,71.0,59.0,29.99,West,275,0.0,-999.0,66,-99.99,,,-99.99,,2013-05-14 15:01:00,
2013-05-14 10:12:00,71.0,59.0,29.99,West,275,0.0,-999.0,66,-99.99,,,-99.99,,2013-05-14 15:12:00,
2013-05-14 10:21:00,74.0,60.0,29.99,SW,220,0.0,-999.0,62,-99.99,,,-99.99,,2013-05-14 15:21:00,
2013-05-14 10:33:00,78.0,57.0,29.99,SSW,204,1.0,-999.0,48,-99.99,,,-99.99,,2013-05-14 15:33:00,
2013-05-14 10:43:00,80.0,57.0,29.99,WNW,284,1.0,-999.0,46,-99.99,,,-99.99,,2013-05-14 15:43:00,
2013-05-14 10:53:00,80.0,57.0,29.99,WNW,284,1.0,-999.0,46,-99.99,,,-99.99,,2013-05-14 15:53:00,
2013-05-14 11:02:00,82.0,57.0,29.99,West,271,2.0,-999.0,42,-99.99,,,-99.99,,2013-05-14 16:02:00,
2013-05-14 11:12:00,82.0,57.0,29.99,West,271,2.0,-999.0,42,-99.99,,,-99.99,,2013-05-14 16:12:00,
2013-05-14 11:23:00,83.0,56.0,29.99,WSW,252,4.0,-999.0,40,-99.99,,,-99.99,,2013-05-14 16:23:00,
2013-05-14 11:33:00,84.0,56.0,29.99,SW,232,3.0,-999.0,39,-99.99,,,-99.99,,2013-05-14 16:33:00,
2013-05-14 11:43:00,84.0,56.0,29.99,SW,232,3.0,-999.0,39,-99.99,,,-99.99,,2013-05-14 16:43:00,
2013-05-14 11:54:00,85.0,57.0,29.99,West,278,3.0,-999.0,38,-99.99,,,-99.99,,2013-05-14 16:54:00,
2013-05-14 12:03:00,86.0,56.0,29.99,WSW,250,3.0,-999.0,36,-99.99,,,-99.99,,2013-05-14 17:03:00,
2013-05-14 12:13:00,86.0,56.0,29.99,WSW,250,3.0,-999.0,36,-99.99,,,-99.99,,2013-05-14 17:13:00,
2013-05-14 12:24:00,87.0,55.0,29.98,SSW,203,4.0,-999.0,34,-99.99,,,-99.99,,2013-05-14 17:24:00,
2013-05-14 12:32:00,87.0,54.0,29.98,WSW,250,4.0,-999.0,33,-99.99,,,-99.99,,2013-05-14 17:32:00,
2013-05-14 12:43:00,87.0,54.0,29.98,WSW,250,4.0,-999.0,33,-99.99,,,-99.99,,2013-05-14 17:43:00,
2013-05-14 12:52:00,88.0,57.0,29.97,SW,219,3.0,-999.0,35,-99.99,,,-99.99,,2013-05-14 17:52:00,
2013-05-14 13:02:00,88.0,59.0,29.96,WSW,250,3.0,-999.0,38,-99.99,,,-99.99,,2013-05-14 18:02:00,
2013-05-14 13:12:00,88.0,59.0,29.96,WSW,250,3.0,-999.0,38,-99.99,,,-99.99,,2013-05-14 18:12:00,
2013-05-14 13:22:00,89.0,55.0,29.96,West,268,5.0,-999.0,32,-99.99,,,-99.99,,2013-05-14 18:22:00,
2013-05-14 13:32:00,89.0,57.0,29.95,West,279,4.0,-999.0,34,-99.99,,,-99.99,,2013-05-14 18:32:00,
2013-05-14 13:42:00,89.0,57.0,29.95,West,279,4.0,-999.0,34,-99.99,,,-99.99,,2013-05-14 18:42:00,
2013-05-14 13:52:00,90.0,56.0,29.95,SW,226,3.0,-999.0,32,-99.99,,,-99.99,,2013-05-14 18:52:00,
2013-05-14 14:01:00,90.0,57.0,29.94,West,271,3.0,-999.0,33,-99.99,,,-99.99,,2013-05-14 19:01:00,
2013-05-14 14:12:00,90.0,57.0,29.94,West,271,3.0,-999.0,33,-99.99,,,-99.99,,2013-05-14 19:12:00,
2013-05-14 14:22:00,90.0,57.0,29.93,SW,235,5.0,-999.0,33,-99.99,,,-99.99,,2013-05-14 19:22:00,
2013-05-14 14:32:00,91.0,53.0,29.92,North,349,4.0,-999.0,28,-99.99,,,-99.99,,2013-05-14 19:32:00,
2013-05-14 14:42:00,91.0,53.0,29.92,North,349,4.0,-999.0,28,-99.99,,,-99.99,,2013-05-14 19:42:00,
2013-05-14 14:52:00,91.0,54.0,29.93,West,268,5.0,-999.0,29,-99.99,,,-99.99,,2013-05-14 19:52:00,
2013-05-14 15:02:00,91.0,56.0,29.92,WSW,251,3.0,-999.0,31,-99.99,,,-99.99,,2013-05-14 20:02:00,
2013-05-14 15:11:00,91.0,56.0,29.92,WSW,251,3.0,-999.0,31,-99.99,,,-99.99,,2013-05-14 20:11:00,
2013-05-14 15:23:00,92.0,55.0,29.92,WNW,297,4.0,-999.0,29,-99.99,,,-99.99,,2013-05-14 20:23:00,
2013-05-14 15:32:00,92.0,56.0,29.91,West,264,2.0,-999.0,30,-99.99,,,-99.99,,2013-05-14 20:32:00,
2013-05-14 15:44:00,92.0,56.0,29.91,West,264,2.0,-999.0,30,-99.99,,,-99.99,,2013-05-14 20:44:00,
2013-05-14 15:52:00,92.0,54.0,29.91,WSW,254,6.0,-999.0,28,-99.99,,,-99.99,,2013-05-14 20:52:00,
2013-05-14 16:03:00,92.0,55.0,29.90,WSW,242,3.0,-999.0,29,-99.99,,,-99.99,,2013-05-14 21:03:00,
2013-05-14 16:12:00,92.0,55.0,29.90,WSW,242,3.0,-999.0,29,-99.99,,,-99.99,,2013-05-14 21:12:00,
2013-05-14 16:23:00,92.0,55.0,29.90,WSW,249,2.0,-999.0,29,-99.99,,,-99.99,,2013-05-14 21:23:00,
2013-05-14 16:33:00,92.0,54.0,29.90,WNW,291,5.0,-999.0,28,-99.99,,,-99.99,,2013-05-14 21:33:00,
2013-05-14 16:43:00,92.0,54.0,29.90,WNW,291,5.0,-999.0,28,-99.99,,,-99.99,,2013-05-14 21:43:00,
2013-05-14 16:52:00,92.0,54.0,29.90,WNW,291,5.0,-999.0,28,-99.99,,,-99.99,,2013-05-14 21:52:00,
2013-05-14 17:03:00,92.0,54.0,29.90,WSW,243,4.0,-999.0,28,-99.99,,,-99.99,,2013-05-14 22:03:00,
2013-05-14 17:13:00,92.0,54.0,29.90,WSW,243,4.0,-999.0,28,-99.99,,,-99.99,,2013-05-14 22:13:00,
2013-05-14 17:24:00,92.0,55.0,29.89,West,274,3.0,-999.0,29,-99.99,,,-99.99,,2013-05-14 22:24:00,
2013-05-14 17:34:00,92.0,56.0,29.90,WSW,237,3.0,-999.0,30,-99.99,,,-99.99,,2013-05-14 22:34:00,
2013-05-14 17:45:00,92.0,56.0,29.90,WSW,237,3.0,-999.0,30,-99.99,,,-99.99,,2013-05-14 22:45:00,
2013-05-14 17:54:00,91.0,55.0,29.90,WSW,245,2.0,-999.0,30,-99.99,,,-99.99,,2013-05-14 22:54:00,
2013-05-14 18:03:00,91.0,54.0,29.90,WSW,240,3.0,-999.0,29,-99.99,,,-99.99,,2013-05-14 23:03:00,
2013-05-14 18:12:00,91.0,54.0,29.90,WSW,240,3.0,-999.0,29,-99.99,,,-99.99,,2013-05-14 23:12:00,
2013-05-14 18:21:00,90.0,53.0,29.89,SSW,196,3.0,-999.0,29,-99.99,,,-99.99,,2013-05-14 23:21:00,
2013-05-14 18:32:00,90.0,57.0,29.89,WSW,249,2.0,-999.0,33,-99.99,,,-99.99,,2013-05-14 23:32:00,
2013-05-14 18:44:00,90.0,57.0,29.89,WSW,249,2.0,-999.0,33,-99.99,,,-99.99,,2013-05-14 23:44:00,
2013-05-14 18:52:00,90.0,56.0,29.89,West,261,1.0,-999.0,32,-99.99,,,-99.99,,2013-05-14 23:52:00,
2013-05-14 19:02:00,89.0,58.0,29.89,West,273,2.0,-999.0,35,-99.99,,,-99.99,,2013-05-15 00:02:00,
2013-05-14 19:11:00,89.0,58.0,29.89,West,273,2.0,-999.0,35,-99.99,,,-99.99,,2013-05-15 00:11:00,
2013-05-14 19:21:00,88.0,55.0,29.89,WSW,244,2.0,-999.0,33,-99.99,,,-99.99,,2013-05-15 00:21:00,
2013-05-14 19:32:00,87.0,56.0,29.89,West,262,1.0,-999.0,35,-99.99,,,-99.99,,2013-05-15 00:32:00,
2013-05-14 19:42:00,87.0,56.0,29.89,West,262,1.0,-999.0,35,-99.99,,,-99.99,,2013-05-15 00:42:00,
2013-05-14 19:51:00,86.0,57.0,29.90,West,268,0.0,-999.0,38,-99.99,,,-99.99,,2013-05-15 00:51:00,
2013-05-14 20:01:00,84.0,60.0,29.90,West,268,0.0,-999.0,44,-99.99,,,-99.99,,2013-05-15 01:01:00,
2013-05-14 20:11:00,84.0,60.0,29.90,West,268,0.0,-999.0,44,-99.99,,,-99.99,,2013-05-15 01:11:00,
2013-05-14 20:21:00,82.0,60.0,29.90,West,268,0.0,-999.0,47,-99.99,,,-99.99,,2013-05-15 01:21:00,
2013-05-14 20:32:00,80.0,59.0,29.90,West,268,0.0,-999.0,48,-99.99,,,-99.99,,2013-05-15 01:32:00,
2013-05-14 20:42:00,80.0,59.0,29.90,West,268,0.0,-999.0,48,-99.99,,,-99.99,,2013-05-15 01:42:00,
2013-05-14 20:52:00,77.0,60.0,29.90,West,268,0.0,-999.0,56,-99.99,,,-99.99,,2013-05-15 01:52:00,
2013-05-14 21:02:00,74.0,57.0,29.90,West,268,0.0,-999.0,56,-99.99,,,-99.99,,2013-05-15 02:02:00,
2013-05-14 21:21:00,71.0,57.0,29.91,West,268,0.0,-999.0,62,-99.99,,,-99.99,,2013-05-15 02:21:00,
2013-05-14 21:32:00,69.0,57.0,29.91,West,268,0.0,-999.0,66,-99.99,,,-99.99,,2013-05-15 02:32:00,
2013-05-14 21:52:00,68.0,57.0,29.91,West,268,0.0,-999.0,69,-99.99,,,-99.99,,2013-05-15 02:52:00,
2013-05-14 22:01:00,67.0,58.0,29.92,West,268,0.0,-999.0,72,-99.99,,,-99.99,,2013-05-15 03:01:00,
2013-05-14 22:22:00,66.0,58.0,29.92,West,268,0.0,-999.0,75,-99.99,,,-99.99,,2013-05-15 03:22:00,
2013-05-14 22:33:00,65.0,58.0,29.92,West,268,0.0,-999.0,77,-99.99,,,-99.99,,2013-05-15 03:33:00,
2013-05-14 22:44:00,64.0,57.0,29.93,West,268,0.0,-999.0,78,-99.99,,,-99.99,,2013-05-15 03:44:00,
2013-05-14 22:54:00,64.0,57.0,29.93,West,268,0.0,-999.0,78,-99.99,,,-99.99,,2013-05-15 03:54:00,
2013-05-14 23:03:00,63.0,56.0,29.93,West,268,0.0,-999.0,79,-99.99,,,-99.99,,2013-05-15 04:03:00,
2013-05-14 23:24:00,64.0,57.0,29.93,West,268,0.0,-999.0,77,-99.99,,,-99.99,,2013-05-15 04:24:00,
2013-05-14 23:52:00,65.0,57.0,29.94,West,268,0.0,-999.0,75,-99.99,,,-99.99,,2013-05-15 04:52:00,